Location: Mission Viejo Division
(33.5624°N, 117.5924°W)
Time: 06:28:18
(UTC+00:00)

Cosmos 2322 - Pass Details

Date: 22 May 2024
Orbit: 840 x 854 km, 71.0° (Epoch: 23 June)

Event Time Altitude Azimuth Distance (km) Brightness Sun altitude
Rises 12:08:01 0° 337° (NNW) 3,419 7.0 -7.6°
Reaches altitude 10° 12:10:28 10° 335° (NNW) 2,478 6.2 -7.2°
Maximum altitude 12:16:08 73° 252° (WSW) 883 3.7 -6.2°
Drops below altitude 10° 12:21:45 10° 168° (SSE) 2,454 6.0 -5.2°
Sets 12:24:11 0° 166° (SSE) 3,383 6.7 -4.7°
